Index of /20260429/WXO-DD/model_rdps/10km/00/068
Name Last modified Size Description
Parent Directory -
20260429T00Z_MSC_RDPS_AbsoluteVorticity_IsbL-0250_RLatLon0.09_PT068H.grib2 2026-04-29 03:00 601K
20260429T00Z_MSC_RDPS_AbsoluteVorticity_IsbL-0500_RLatLon0.09_PT068H.grib2 2026-04-29 03:00 558K
20260429T00Z_MSC_RDPS_AbsoluteVorticity_IsbL-0700_RLatLon0.09_PT068H.grib2 2026-04-29 03:00 615K
20260429T00Z_MSC_RDPS_AbsoluteVorticity_IsbL-0850_RLatLon0.09_PT068H.grib2 2026-04-29 03:00 770K
20260429T00Z_MSC_RDPS_AirTemp_AGL-120m_RLatLon0.09_PT068H.grib2 2026-04-29 03:00 390K
20260429T00Z_MSC_RDPS_AirTemp_AGL-2m_RLatLon0.09_PT068H.grib2 2026-04-29 03:00 626K
20260429T00Z_MSC_RDPS_AirTemp_AGL-40m_RLatLon0.09_PT068H.grib2 2026-04-29 03:00 401K
20260429T00Z_MSC_RDPS_AirTemp_AGL-80m_RLatLon0.09_PT068H.grib2 2026-04-29 03:00 394K
20260429T00Z_MSC_RDPS_AirTemp_IsbL-0001_RLatLon0.09_PT068H.grib2 2026-04-29 03:00 276K
20260429T00Z_MSC_RDPS_AirTemp_IsbL-0005_RLatLon0.09_PT068H.grib2 2026-04-29 03:00 288K
20260429T00Z_MSC_RDPS_AirTemp_IsbL-0010_RLatLon0.09_PT068H.grib2 2026-04-29 03:00 299K
20260429T00Z_MSC_RDPS_AirTemp_IsbL-0020_RLatLon0.09_PT068H.grib2 2026-04-29 03:00 411K
20260429T00Z_MSC_RDPS_AirTemp_IsbL-0030_RLatLon0.09_PT068H.grib2 2026-04-29 03:00 338K
20260429T00Z_MSC_RDPS_AirTemp_IsbL-0050_RLatLon0.09_PT068H.grib2 2026-04-29 03:00 312K
20260429T00Z_MSC_RDPS_AirTemp_IsbL-0100_RLatLon0.09_PT068H.grib2 2026-04-29 03:00 420K
20260429T00Z_MSC_RDPS_AirTemp_IsbL-0150_RLatLon0.09_PT068H.grib2 2026-04-29 03:00 416K
20260429T00Z_MSC_RDPS_AirTemp_IsbL-0175_RLatLon0.09_PT068H.grib2 2026-04-29 03:00 413K
20260429T00Z_MSC_RDPS_AirTemp_IsbL-0200_RLatLon0.09_PT068H.grib2 2026-04-29 03:00 415K
20260429T00Z_MSC_RDPS_AirTemp_IsbL-0225_RLatLon0.09_PT068H.grib2 2026-04-29 03:00 413K
20260429T00Z_MSC_RDPS_AirTemp_IsbL-0250_RLatLon0.09_PT068H.grib2 2026-04-29 03:00 416K
20260429T00Z_MSC_RDPS_AirTemp_IsbL-0275_RLatLon0.09_PT068H.grib2 2026-04-29 03:00 395K
20260429T00Z_MSC_RDPS_AirTemp_IsbL-0300_RLatLon0.09_PT068H.grib2 2026-04-29 03:00 428K
20260429T00Z_MSC_RDPS_AirTemp_IsbL-0350_RLatLon0.09_PT068H.grib2 2026-04-29 03:00 416K
20260429T00Z_MSC_RDPS_AirTemp_IsbL-0400_RLatLon0.09_PT068H.grib2 2026-04-29 03:00 385K
20260429T00Z_MSC_RDPS_AirTemp_IsbL-0450_RLatLon0.09_PT068H.grib2 2026-04-29 03:00 392K
20260429T00Z_MSC_RDPS_AirTemp_IsbL-0500_RLatLon0.09_PT068H.grib2 2026-04-29 03:00 404K
20260429T00Z_MSC_RDPS_AirTemp_IsbL-0550_RLatLon0.09_PT068H.grib2 2026-04-29 03:00 424K
20260429T00Z_MSC_RDPS_AirTemp_IsbL-0600_RLatLon0.09_PT068H.grib2 2026-04-29 03:00 446K
20260429T00Z_MSC_RDPS_AirTemp_IsbL-0650_RLatLon0.09_PT068H.grib2 2026-04-29 03:00 359K
20260429T00Z_MSC_RDPS_AirTemp_IsbL-0700_RLatLon0.09_PT068H.grib2 2026-04-29 03:00 380K
20260429T00Z_MSC_RDPS_AirTemp_IsbL-0750_RLatLon0.09_PT068H.grib2 2026-04-29 03:00 413K
20260429T00Z_MSC_RDPS_AirTemp_IsbL-0800_RLatLon0.09_PT068H.grib2 2026-04-29 03:00 452K
20260429T00Z_MSC_RDPS_AirTemp_IsbL-0850_RLatLon0.09_PT068H.grib2 2026-04-29 03:00 498K
20260429T00Z_MSC_RDPS_AirTemp_IsbL-0875_RLatLon0.09_PT068H.grib2 2026-04-29 03:00 519K
20260429T00Z_MSC_RDPS_AirTemp_IsbL-0900_RLatLon0.09_PT068H.grib2 2026-04-29 03:00 527K
20260429T00Z_MSC_RDPS_AirTemp_IsbL-0925_RLatLon0.09_PT068H.grib2 2026-04-29 03:00 524K
20260429T00Z_MSC_RDPS_AirTemp_IsbL-0950_RLatLon0.09_PT068H.grib2 2026-04-29 03:00 528K
20260429T00Z_MSC_RDPS_AirTemp_IsbL-0970_RLatLon0.09_PT068H.grib2 2026-04-29 03:00 521K
20260429T00Z_MSC_RDPS_AirTemp_IsbL-0985_RLatLon0.09_PT068H.grib2 2026-04-29 03:00 525K
20260429T00Z_MSC_RDPS_AirTemp_IsbL-1000_RLatLon0.09_PT068H.grib2 2026-04-29 03:00 514K
20260429T00Z_MSC_RDPS_AirTemp_IsbL-1015_RLatLon0.09_PT068H.grib2 2026-04-29 03:00 508K
20260429T00Z_MSC_RDPS_Albedo_Sfc_RLatLon0.09_PT068H.grib2 2026-04-29 03:00 162K
20260429T00Z_MSC_RDPS_CAPE_Sfc_RLatLon0.09_PT068H.grib2 2026-04-29 03:00 1.7M
20260429T00Z_MSC_RDPS_CIN_Sfc_RLatLon0.09_PT068H.grib2 2026-04-29 03:00 1.2M
20260429T00Z_MSC_RDPS_CloudWater_EAtm_RLatLon0.09_PT068H.grib2 2026-04-29 03:00 222K
20260429T00Z_MSC_RDPS_ConvectivePrecip-Accum_Sfc_RLatLon0.09_PT068H.grib2 2026-04-29 03:00 1.2M
20260429T00Z_MSC_RDPS_DewPointDepression_AGL-2m_RLatLon0.09_PT068H.grib2 2026-04-29 03:00 416K
20260429T00Z_MSC_RDPS_DewPointDepression_IsbL-0001_RLatLon0.09_PT068H.grib2 2026-04-29 03:00 193
20260429T00Z_MSC_RDPS_DewPointDepression_IsbL-0005_RLatLon0.09_PT068H.grib2 2026-04-29 03:00 193
20260429T00Z_MSC_RDPS_DewPointDepression_IsbL-0010_RLatLon0.09_PT068H.grib2 2026-04-29 03:00 193
20260429T00Z_MSC_RDPS_DewPointDepression_IsbL-0020_RLatLon0.09_PT068H.grib2 2026-04-29 03:00 193
20260429T00Z_MSC_RDPS_DewPointDepression_IsbL-0030_RLatLon0.09_PT068H.grib2 2026-04-29 03:00 193
20260429T00Z_MSC_RDPS_DewPointDepression_IsbL-0050_RLatLon0.09_PT068H.grib2 2026-04-29 03:00 77K
20260429T00Z_MSC_RDPS_DewPointDepression_IsbL-0100_RLatLon0.09_PT068H.grib2 2026-04-29 03:00 126K
20260429T00Z_MSC_RDPS_DewPointDepression_IsbL-0150_RLatLon0.09_PT068H.grib2 2026-04-29 03:00 152K
20260429T00Z_MSC_RDPS_DewPointDepression_IsbL-0175_RLatLon0.09_PT068H.grib2 2026-04-29 03:00 188K
20260429T00Z_MSC_RDPS_DewPointDepression_IsbL-0200_RLatLon0.09_PT068H.grib2 2026-04-29 03:00 221K
20260429T00Z_MSC_RDPS_DewPointDepression_IsbL-0225_RLatLon0.09_PT068H.grib2 2026-04-29 03:00 259K
20260429T00Z_MSC_RDPS_DewPointDepression_IsbL-0250_RLatLon0.09_PT068H.grib2 2026-04-29 03:00 297K
20260429T00Z_MSC_RDPS_DewPointDepression_IsbL-0275_RLatLon0.09_PT068H.grib2 2026-04-29 03:00 304K
20260429T00Z_MSC_RDPS_DewPointDepression_IsbL-0300_RLatLon0.09_PT068H.grib2 2026-04-29 03:00 322K
20260429T00Z_MSC_RDPS_DewPointDepression_IsbL-0350_RLatLon0.09_PT068H.grib2 2026-04-29 03:00 328K
20260429T00Z_MSC_RDPS_DewPointDepression_IsbL-0400_RLatLon0.09_PT068H.grib2 2026-04-29 03:00 342K
20260429T00Z_MSC_RDPS_DewPointDepression_IsbL-0450_RLatLon0.09_PT068H.grib2 2026-04-29 03:00 352K
20260429T00Z_MSC_RDPS_DewPointDepression_IsbL-0500_RLatLon0.09_PT068H.grib2 2026-04-29 03:00 357K
20260429T00Z_MSC_RDPS_DewPointDepression_IsbL-0550_RLatLon0.09_PT068H.grib2 2026-04-29 03:00 369K
20260429T00Z_MSC_RDPS_DewPointDepression_IsbL-0600_RLatLon0.09_PT068H.grib2 2026-04-29 03:00 382K
20260429T00Z_MSC_RDPS_DewPointDepression_IsbL-0650_RLatLon0.09_PT068H.grib2 2026-04-29 03:00 385K
20260429T00Z_MSC_RDPS_DewPointDepression_IsbL-0700_RLatLon0.09_PT068H.grib2 2026-04-29 03:00 391K
20260429T00Z_MSC_RDPS_DewPointDepression_IsbL-0750_RLatLon0.09_PT068H.grib2 2026-04-29 03:00 414K
20260429T00Z_MSC_RDPS_DewPointDepression_IsbL-0800_RLatLon0.09_PT068H.grib2 2026-04-29 03:00 449K
20260429T00Z_MSC_RDPS_DewPointDepression_IsbL-0850_RLatLon0.09_PT068H.grib2 2026-04-29 03:00 476K
20260429T00Z_MSC_RDPS_DewPointDepression_IsbL-0875_RLatLon0.09_PT068H.grib2 2026-04-29 03:00 478K
20260429T00Z_MSC_RDPS_DewPointDepression_IsbL-0900_RLatLon0.09_PT068H.grib2 2026-04-29 03:00 469K
20260429T00Z_MSC_RDPS_DewPointDepression_IsbL-0925_RLatLon0.09_PT068H.grib2 2026-04-29 03:00 453K
20260429T00Z_MSC_RDPS_DewPointDepression_IsbL-0950_RLatLon0.09_PT068H.grib2 2026-04-29 03:00 447K
20260429T00Z_MSC_RDPS_DewPointDepression_IsbL-0970_RLatLon0.09_PT068H.grib2 2026-04-29 03:00 436K
20260429T00Z_MSC_RDPS_DewPointDepression_IsbL-0985_RLatLon0.09_PT068H.grib2 2026-04-29 03:00 432K
20260429T00Z_MSC_RDPS_DewPointDepression_IsbL-1000_RLatLon0.09_PT068H.grib2 2026-04-29 03:00 428K
20260429T00Z_MSC_RDPS_DewPointDepression_IsbL-1015_RLatLon0.09_PT068H.grib2 2026-04-29 03:00 417K
20260429T00Z_MSC_RDPS_DewPoint_AGL-2m_RLatLon0.09_PT068H.grib2 2026-04-29 03:00 395K
20260429T00Z_MSC_RDPS_DownwardLongwaveRadiationFlux-Accum_Sfc_RLatLon0.09_PT068H.grib2 2026-04-29 03:00 415K
20260429T00Z_MSC_RDPS_DownwardShortwaveRadiationFlux-Accum_NTAtm_RLatLon0.09_PT068H.grib2 2026-04-29 03:00 164K
20260429T00Z_MSC_RDPS_DownwardShortwaveRadiationFlux-Accum_Sfc_RLatLon0.09_PT068H.grib2 2026-04-29 03:00 603K
20260429T00Z_MSC_RDPS_FreezingRain-Accum1h_Sfc_RLatLon0.09_PT068H.grib2 2026-04-29 03:00 14K
20260429T00Z_MSC_RDPS_FreezingRain-Accum_Sfc_RLatLon0.09_PT068H.grib2 2026-04-29 03:00 215K
20260429T00Z_MSC_RDPS_GeopotentialHeight_IsbL-0001_RLatLon0.09_PT068H.grib2 2026-04-29 03:00 243K
20260429T00Z_MSC_RDPS_GeopotentialHeight_IsbL-0005_RLatLon0.09_PT068H.grib2 2026-04-29 03:00 337K
20260429T00Z_MSC_RDPS_GeopotentialHeight_IsbL-0010_RLatLon0.09_PT068H.grib2 2026-04-29 03:00 339K
20260429T00Z_MSC_RDPS_GeopotentialHeight_IsbL-0020_RLatLon0.09_PT068H.grib2 2026-04-29 03:00 305K
20260429T00Z_MSC_RDPS_GeopotentialHeight_IsbL-0030_RLatLon0.09_PT068H.grib2 2026-04-29 03:00 307K
20260429T00Z_MSC_RDPS_GeopotentialHeight_IsbL-0050_RLatLon0.09_PT068H.grib2 2026-04-29 03:00 307K
20260429T00Z_MSC_RDPS_GeopotentialHeight_IsbL-0100_RLatLon0.09_PT068H.grib2 2026-04-29 03:00 285K
20260429T00Z_MSC_RDPS_GeopotentialHeight_IsbL-0150_RLatLon0.09_PT068H.grib2 2026-04-29 03:00 229K
20260429T00Z_MSC_RDPS_GeopotentialHeight_IsbL-0175_RLatLon0.09_PT068H.grib2 2026-04-29 03:00 262K
20260429T00Z_MSC_RDPS_GeopotentialHeight_IsbL-0200_RLatLon0.09_PT068H.grib2 2026-04-29 03:00 265K
20260429T00Z_MSC_RDPS_GeopotentialHeight_IsbL-0225_RLatLon0.09_PT068H.grib2 2026-04-29 03:00 266K
20260429T00Z_MSC_RDPS_GeopotentialHeight_IsbL-0250_RLatLon0.09_PT068H.grib2 2026-04-29 03:00 267K
20260429T00Z_MSC_RDPS_GeopotentialHeight_IsbL-0275_RLatLon0.09_PT068H.grib2 2026-04-29 03:00 266K
20260429T00Z_MSC_RDPS_GeopotentialHeight_IsbL-0300_RLatLon0.09_PT068H.grib2 2026-04-29 03:00 264K
20260429T00Z_MSC_RDPS_GeopotentialHeight_IsbL-0350_RLatLon0.09_PT068H.grib2 2026-04-29 03:00 230K
20260429T00Z_MSC_RDPS_GeopotentialHeight_IsbL-0400_RLatLon0.09_PT068H.grib2 2026-04-29 03:00 228K
20260429T00Z_MSC_RDPS_GeopotentialHeight_IsbL-0450_RLatLon0.09_PT068H.grib2 2026-04-29 03:00 296K
20260429T00Z_MSC_RDPS_GeopotentialHeight_IsbL-0500_RLatLon0.09_PT068H.grib2 2026-04-29 03:00 291K
20260429T00Z_MSC_RDPS_GeopotentialHeight_IsbL-0550_RLatLon0.09_PT068H.grib2 2026-04-29 03:00 288K
20260429T00Z_MSC_RDPS_GeopotentialHeight_IsbL-0600_RLatLon0.09_PT068H.grib2 2026-04-29 03:00 286K
20260429T00Z_MSC_RDPS_GeopotentialHeight_IsbL-0650_RLatLon0.09_PT068H.grib2 2026-04-29 03:00 257K
20260429T00Z_MSC_RDPS_GeopotentialHeight_IsbL-0700_RLatLon0.09_PT068H.grib2 2026-04-29 03:00 256K
20260429T00Z_MSC_RDPS_GeopotentialHeight_IsbL-0750_RLatLon0.09_PT068H.grib2 2026-04-29 03:00 341K
20260429T00Z_MSC_RDPS_GeopotentialHeight_IsbL-0800_RLatLon0.09_PT068H.grib2 2026-04-29 03:00 347K
20260429T00Z_MSC_RDPS_GeopotentialHeight_IsbL-0850_RLatLon0.09_PT068H.grib2 2026-04-29 03:00 356K
20260429T00Z_MSC_RDPS_GeopotentialHeight_IsbL-0875_RLatLon0.09_PT068H.grib2 2026-04-29 03:00 356K
20260429T00Z_MSC_RDPS_GeopotentialHeight_IsbL-0900_RLatLon0.09_PT068H.grib2 2026-04-29 03:00 362K
20260429T00Z_MSC_RDPS_GeopotentialHeight_IsbL-0925_RLatLon0.09_PT068H.grib2 2026-04-29 03:00 366K
20260429T00Z_MSC_RDPS_GeopotentialHeight_IsbL-0950_RLatLon0.09_PT068H.grib2 2026-04-29 03:00 370K
20260429T00Z_MSC_RDPS_GeopotentialHeight_IsbL-0970_RLatLon0.09_PT068H.grib2 2026-04-29 03:00 377K
20260429T00Z_MSC_RDPS_GeopotentialHeight_IsbL-0985_RLatLon0.09_PT068H.grib2 2026-04-29 03:00 386K
20260429T00Z_MSC_RDPS_GeopotentialHeight_IsbL-1000_RLatLon0.09_PT068H.grib2 2026-04-29 03:00 398K
20260429T00Z_MSC_RDPS_GeopotentialHeight_IsbL-1015_RLatLon0.09_PT068H.grib2 2026-04-29 03:00 413K
20260429T00Z_MSC_RDPS_Humidex_Sfc_RLatLon0.09_PT068H.grib2 2026-04-29 03:00 2.4M
20260429T00Z_MSC_RDPS_IcePellets-Accum1h_Sfc_RLatLon0.09_PT068H.grib2 2026-04-29 03:00 5.5K
20260429T00Z_MSC_RDPS_IcePellets-Accum_Sfc_RLatLon0.09_PT068H.grib2 2026-04-29 03:00 32K
20260429T00Z_MSC_RDPS_KIndex_Sfc_RLatLon0.09_PT068H.grib2 2026-04-29 03:00 2.5M
20260429T00Z_MSC_RDPS_LatentHeatNetFlux_Sfc_RLatLon0.09_PT068H.grib2 2026-04-29 03:00 302K
20260429T00Z_MSC_RDPS_LiftedIndex-MU-VT_IsbL-0500_RLatLon0.09_PT068H.grib2 2026-04-29 03:00 2.4M
20260429T00Z_MSC_RDPS_NetLongwaveRadiationFlux-Accum_Sfc_RLatLon0.09_PT068H.grib2 2026-04-29 03:00 592K
20260429T00Z_MSC_RDPS_NetShortwaveRadiationFlux-Accum_Sfc_RLatLon0.09_PT068H.grib2 2026-04-29 03:00 606K
20260429T00Z_MSC_RDPS_PlanetaryBoundaryLayerHeight_Sfc_RLatLon0.09_PT068H.grib2 2026-04-29 03:00 1.0M
20260429T00Z_MSC_RDPS_Precip-Accum1h_Sfc_RLatLon0.09_PT068H.grib2 2026-04-29 03:00 1.2M
20260429T00Z_MSC_RDPS_Precip-Accum_Sfc_RLatLon0.09_PT068H.grib2 2026-04-29 03:00 2.1M
20260429T00Z_MSC_RDPS_PrecipRate_Sfc_RLatLon0.09_PT068H.grib2 2026-04-29 03:00 163K
20260429T00Z_MSC_RDPS_PrecipType-Instant_Sfc_RLatLon0.09_PT068H.grib2 2026-04-29 03:00 556K
20260429T00Z_MSC_RDPS_Pressure-Trend3h_Sfc_RLatLon0.09_PT068H.grib2 2026-04-29 03:00 1.2M
20260429T00Z_MSC_RDPS_Pressure_MSL_RLatLon0.09_PT068H.grib2 2026-04-29 03:00 329K
20260429T00Z_MSC_RDPS_Pressure_PVU-1.5_RLatLon0.09_PT068H.grib2 2026-04-29 03:00 2.5M
20260429T00Z_MSC_RDPS_Pressure_PVU-1_RLatLon0.09_PT068H.grib2 2026-04-29 03:00 2.4M
20260429T00Z_MSC_RDPS_Pressure_PVU-2_RLatLon0.09_PT068H.grib2 2026-04-29 03:00 2.4M
20260429T00Z_MSC_RDPS_Pressure_Sfc_RLatLon0.09_PT068H.grib2 2026-04-29 03:00 498K
20260429T00Z_MSC_RDPS_RadiativeTemp_Sfc_RLatLon0.09_PT068H.grib2 2026-04-29 03:00 330K
20260429T00Z_MSC_RDPS_Rain-Accum1h_Sfc_RLatLon0.09_PT068H.grib2 2026-04-29 03:00 519K
20260429T00Z_MSC_RDPS_Rain-Accum_Sfc_RLatLon0.09_PT068H.grib2 2026-04-29 03:00 1.7M
20260429T00Z_MSC_RDPS_RelativeHumidity_AGL-2m_RLatLon0.09_PT068H.grib2 2026-04-29 03:00 1.0M
20260429T00Z_MSC_RDPS_RelativeHumidity_IsbL-0010_RLatLon0.09_PT068H.grib2 2026-04-29 03:00 619K
20260429T00Z_MSC_RDPS_RelativeHumidity_IsbL-0020_RLatLon0.09_PT068H.grib2 2026-04-29 03:00 668K
20260429T00Z_MSC_RDPS_RelativeHumidity_IsbL-0030_RLatLon0.09_PT068H.grib2 2026-04-29 03:00 605K
20260429T00Z_MSC_RDPS_RelativeHumidity_IsbL-0050_RLatLon0.09_PT068H.grib2 2026-04-29 03:00 363K
20260429T00Z_MSC_RDPS_RelativeHumidity_IsbL-0100_RLatLon0.09_PT068H.grib2 2026-04-29 03:00 275K
20260429T00Z_MSC_RDPS_RelativeHumidity_IsbL-0150_RLatLon0.09_PT068H.grib2 2026-04-29 03:00 398K
20260429T00Z_MSC_RDPS_RelativeHumidity_IsbL-0175_RLatLon0.09_PT068H.grib2 2026-04-29 03:00 470K
20260429T00Z_MSC_RDPS_RelativeHumidity_IsbL-0200_RLatLon0.09_PT068H.grib2 2026-04-29 03:00 556K
20260429T00Z_MSC_RDPS_RelativeHumidity_IsbL-0225_RLatLon0.09_PT068H.grib2 2026-04-29 03:00 626K
20260429T00Z_MSC_RDPS_RelativeHumidity_IsbL-0250_RLatLon0.09_PT068H.grib2 2026-04-29 03:00 690K
20260429T00Z_MSC_RDPS_RelativeHumidity_IsbL-0275_RLatLon0.09_PT068H.grib2 2026-04-29 03:00 709K
20260429T00Z_MSC_RDPS_RelativeHumidity_IsbL-0300_RLatLon0.09_PT068H.grib2 2026-04-29 03:00 752K
20260429T00Z_MSC_RDPS_RelativeHumidity_IsbL-0350_RLatLon0.09_PT068H.grib2 2026-04-29 03:00 769K
20260429T00Z_MSC_RDPS_RelativeHumidity_IsbL-0400_RLatLon0.09_PT068H.grib2 2026-04-29 03:00 788K
20260429T00Z_MSC_RDPS_RelativeHumidity_IsbL-0450_RLatLon0.09_PT068H.grib2 2026-04-29 03:00 798K
20260429T00Z_MSC_RDPS_RelativeHumidity_IsbL-0500_RLatLon0.09_PT068H.grib2 2026-04-29 03:00 806K
20260429T00Z_MSC_RDPS_RelativeHumidity_IsbL-0550_RLatLon0.09_PT068H.grib2 2026-04-29 03:00 826K
20260429T00Z_MSC_RDPS_RelativeHumidity_IsbL-0600_RLatLon0.09_PT068H.grib2 2026-04-29 03:00 846K
20260429T00Z_MSC_RDPS_RelativeHumidity_IsbL-0650_RLatLon0.09_PT068H.grib2 2026-04-29 03:00 855K
20260429T00Z_MSC_RDPS_RelativeHumidity_IsbL-0700_RLatLon0.09_PT068H.grib2 2026-04-29 03:00 883K
20260429T00Z_MSC_RDPS_RelativeHumidity_IsbL-0750_RLatLon0.09_PT068H.grib2 2026-04-29 03:00 928K
20260429T00Z_MSC_RDPS_RelativeHumidity_IsbL-0800_RLatLon0.09_PT068H.grib2 2026-04-29 03:00 1.0M
20260429T00Z_MSC_RDPS_RelativeHumidity_IsbL-0850_RLatLon0.09_PT068H.grib2 2026-04-29 03:00 1.0M
20260429T00Z_MSC_RDPS_RelativeHumidity_IsbL-0875_RLatLon0.09_PT068H.grib2 2026-04-29 03:00 1.1M
20260429T00Z_MSC_RDPS_RelativeHumidity_IsbL-0900_RLatLon0.09_PT068H.grib2 2026-04-29 03:00 1.1M
20260429T00Z_MSC_RDPS_RelativeHumidity_IsbL-0925_RLatLon0.09_PT068H.grib2 2026-04-29 03:00 1.1M
20260429T00Z_MSC_RDPS_RelativeHumidity_IsbL-0950_RLatLon0.09_PT068H.grib2 2026-04-29 03:00 1.1M
20260429T00Z_MSC_RDPS_RelativeHumidity_IsbL-0970_RLatLon0.09_PT068H.grib2 2026-04-29 03:00 1.0M
20260429T00Z_MSC_RDPS_RelativeHumidity_IsbL-0985_RLatLon0.09_PT068H.grib2 2026-04-29 03:00 1.0M
20260429T00Z_MSC_RDPS_RelativeHumidity_IsbL-1000_RLatLon0.09_PT068H.grib2 2026-04-29 03:00 1.0M
20260429T00Z_MSC_RDPS_RelativeHumidity_IsbL-1015_RLatLon0.09_PT068H.grib2 2026-04-29 03:00 1.0M
20260429T00Z_MSC_RDPS_Runoff-Accum_Sfc_RLatLon0.09_PT068H.grib2 2026-04-29 03:00 62K
20260429T00Z_MSC_RDPS_SWEATIndex_Sfc_RLatLon0.09_PT068H.grib2 2026-04-29 03:00 2.4M
20260429T00Z_MSC_RDPS_SeeingIndex_EAtm_RLatLon0.09_PT068H.grib2 2026-04-29 03:00 1.0M
20260429T00Z_MSC_RDPS_SensibleHeatNetFlux_Sfc_RLatLon0.09_PT068H.grib2 2026-04-29 03:00 360K
20260429T00Z_MSC_RDPS_ShowalterIndex_IsbL-0500_RLatLon0.09_PT068H.grib2 2026-04-29 03:00 2.6M
20260429T00Z_MSC_RDPS_SkyTransparencyIndex_EAtm_RLatLon0.09_PT068H.grib2 2026-04-29 03:00 707K
20260429T00Z_MSC_RDPS_Snow-Accum1h_Sfc_RLatLon0.09_PT068H.grib2 2026-04-29 03:00 462K
20260429T00Z_MSC_RDPS_Snow-Accum_Sfc_RLatLon0.09_PT068H.grib2 2026-04-29 03:00 787K
20260429T00Z_MSC_RDPS_SnowDensity_Sfc_RLatLon0.09_PT068H.grib2 2026-04-29 03:00 181K
20260429T00Z_MSC_RDPS_SnowDepth_Sfc_RLatLon0.09_PT068H.grib2 2026-04-29 03:00 674K
20260429T00Z_MSC_RDPS_SoilTemp_DBS-0to10cm_RLatLon0.09_PT068H.grib2 2026-04-29 03:00 245K
20260429T00Z_MSC_RDPS_SoilTemp_Sfc_RLatLon0.09_PT068H.grib2 2026-04-29 03:00 289K
20260429T00Z_MSC_RDPS_SoilVolumetricIceContent_Sfc_RLatLon0.09_PT068H.grib2 2026-04-29 03:00 162K
20260429T00Z_MSC_RDPS_SoilVolumetricWaterContent_DBS-0to10cm_RLatLon0.09_PT068H.grib2 2026-04-29 03:00 270K
20260429T00Z_MSC_RDPS_SoilVolumetricWaterContent_DBS-0to1cm_RLatLon0.09_PT068H.grib2 2026-04-29 03:00 338K
20260429T00Z_MSC_RDPS_SpecificHumidity_AGL-120m_RLatLon0.09_PT068H.grib2 2026-04-29 03:00 492K
20260429T00Z_MSC_RDPS_SpecificHumidity_AGL-2m_RLatLon0.09_PT068H.grib2 2026-04-29 03:00 660K
20260429T00Z_MSC_RDPS_SpecificHumidity_AGL-40m_RLatLon0.09_PT068H.grib2 2026-04-29 03:00 496K
20260429T00Z_MSC_RDPS_SpecificHumidity_AGL-80m_RLatLon0.09_PT068H.grib2 2026-04-29 03:00 493K
20260429T00Z_MSC_RDPS_SpecificHumidity_IsbL-0001_RLatLon0.09_PT068H.grib2 2026-04-29 03:00 372K
20260429T00Z_MSC_RDPS_SpecificHumidity_IsbL-0005_RLatLon0.09_PT068H.grib2 2026-04-29 03:00 354K
20260429T00Z_MSC_RDPS_SpecificHumidity_IsbL-0010_RLatLon0.09_PT068H.grib2 2026-04-29 03:00 389K
20260429T00Z_MSC_RDPS_SpecificHumidity_IsbL-0020_RLatLon0.09_PT068H.grib2 2026-04-29 03:00 375K
20260429T00Z_MSC_RDPS_SpecificHumidity_IsbL-0030_RLatLon0.09_PT068H.grib2 2026-04-29 03:00 363K
20260429T00Z_MSC_RDPS_SpecificHumidity_IsbL-0050_RLatLon0.09_PT068H.grib2 2026-04-29 03:00 470K
20260429T00Z_MSC_RDPS_SpecificHumidity_IsbL-0100_RLatLon0.09_PT068H.grib2 2026-04-29 03:00 415K
20260429T00Z_MSC_RDPS_SpecificHumidity_IsbL-0150_RLatLon0.09_PT068H.grib2 2026-04-29 03:00 444K
20260429T00Z_MSC_RDPS_SpecificHumidity_IsbL-0175_RLatLon0.09_PT068H.grib2 2026-04-29 03:00 429K
20260429T00Z_MSC_RDPS_SpecificHumidity_IsbL-0200_RLatLon0.09_PT068H.grib2 2026-04-29 03:00 463K
20260429T00Z_MSC_RDPS_SpecificHumidity_IsbL-0225_RLatLon0.09_PT068H.grib2 2026-04-29 03:00 468K
20260429T00Z_MSC_RDPS_SpecificHumidity_IsbL-0250_RLatLon0.09_PT068H.grib2 2026-04-29 03:00 514K
20260429T00Z_MSC_RDPS_SpecificHumidity_IsbL-0275_RLatLon0.09_PT068H.grib2 2026-04-29 03:00 471K
20260429T00Z_MSC_RDPS_SpecificHumidity_IsbL-0300_RLatLon0.09_PT068H.grib2 2026-04-29 03:00 444K
20260429T00Z_MSC_RDPS_SpecificHumidity_IsbL-0350_RLatLon0.09_PT068H.grib2 2026-04-29 03:00 435K
20260429T00Z_MSC_RDPS_SpecificHumidity_IsbL-0400_RLatLon0.09_PT068H.grib2 2026-04-29 03:00 517K
20260429T00Z_MSC_RDPS_SpecificHumidity_IsbL-0450_RLatLon0.09_PT068H.grib2 2026-04-29 03:00 572K
20260429T00Z_MSC_RDPS_SpecificHumidity_IsbL-0500_RLatLon0.09_PT068H.grib2 2026-04-29 03:00 509K
20260429T00Z_MSC_RDPS_SpecificHumidity_IsbL-0550_RLatLon0.09_PT068H.grib2 2026-04-29 03:00 584K
20260429T00Z_MSC_RDPS_SpecificHumidity_IsbL-0600_RLatLon0.09_PT068H.grib2 2026-04-29 03:00 515K
20260429T00Z_MSC_RDPS_SpecificHumidity_IsbL-0650_RLatLon0.09_PT068H.grib2 2026-04-29 03:00 551K
20260429T00Z_MSC_RDPS_SpecificHumidity_IsbL-0700_RLatLon0.09_PT068H.grib2 2026-04-29 03:00 591K
20260429T00Z_MSC_RDPS_SpecificHumidity_IsbL-0750_RLatLon0.09_PT068H.grib2 2026-04-29 03:00 664K
20260429T00Z_MSC_RDPS_SpecificHumidity_IsbL-0800_RLatLon0.09_PT068H.grib2 2026-04-29 03:00 738K
20260429T00Z_MSC_RDPS_SpecificHumidity_IsbL-0850_RLatLon0.09_PT068H.grib2 2026-04-29 03:00 810K
20260429T00Z_MSC_RDPS_SpecificHumidity_IsbL-0875_RLatLon0.09_PT068H.grib2 2026-04-29 03:00 837K
20260429T00Z_MSC_RDPS_SpecificHumidity_IsbL-0900_RLatLon0.09_PT068H.grib2 2026-04-29 03:00 710K
20260429T00Z_MSC_RDPS_SpecificHumidity_IsbL-0925_RLatLon0.09_PT068H.grib2 2026-04-29 03:00 710K
20260429T00Z_MSC_RDPS_SpecificHumidity_IsbL-0950_RLatLon0.09_PT068H.grib2 2026-04-29 03:00 712K
20260429T00Z_MSC_RDPS_SpecificHumidity_IsbL-0970_RLatLon0.09_PT068H.grib2 2026-04-29 03:00 700K
20260429T00Z_MSC_RDPS_SpecificHumidity_IsbL-0985_RLatLon0.09_PT068H.grib2 2026-04-29 03:00 692K
20260429T00Z_MSC_RDPS_SpecificHumidity_IsbL-1000_RLatLon0.09_PT068H.grib2 2026-04-29 03:00 685K
20260429T00Z_MSC_RDPS_SpecificHumidity_IsbL-1015_RLatLon0.09_PT068H.grib2 2026-04-29 03:00 672K
20260429T00Z_MSC_RDPS_SpecificHumidity_Sfc_RLatLon0.09_PT068H.grib2 2026-04-29 03:00 344K
20260429T00Z_MSC_RDPS_StormRelativeHelicity_EtaL-10000_RLatLon0.09_PT068H.grib2 2026-04-29 03:00 1.0M
20260429T00Z_MSC_RDPS_StormSeverityIndex_EtaL-10000_RLatLon0.09_PT068H.grib2 2026-04-29 03:00 1.2M
20260429T00Z_MSC_RDPS_Thickness_IsbL-0850to0700_RLatLon0.09_PT068H.grib2 2026-04-29 03:00 196K
20260429T00Z_MSC_RDPS_Thickness_IsbL-1000to0500_RLatLon0.09_PT068H.grib2 2026-04-29 03:00 138K
20260429T00Z_MSC_RDPS_Thickness_IsbL-1000to0850_RLatLon0.09_PT068H.grib2 2026-04-29 03:00 188K
20260429T00Z_MSC_RDPS_TotalCloudCover_Sfc_RLatLon0.09_PT068H.grib2 2026-04-29 03:00 641K
20260429T00Z_MSC_RDPS_TotalTotalsIndex_Sfc_RLatLon0.09_PT068H.grib2 2026-04-29 03:00 2.4M
20260429T00Z_MSC_RDPS_UVIndex-ClearSky_Sfc_RLatLon0.09_PT068H.grib2 2026-04-29 03:00 215K
20260429T00Z_MSC_RDPS_UVIndex_Sfc_RLatLon0.09_PT068H.grib2 2026-04-29 03:00 499K
20260429T00Z_MSC_RDPS_UpwardLongwaveRadiationFlux_NTAtm_RLatLon0.09_PT068H.grib2 2026-04-29 03:00 377K
20260429T00Z_MSC_RDPS_UpwardShortwaveRadiationFlux_NTAtm_RLatLon0.09_PT068H.grib2 2026-04-29 03:00 530K
20260429T00Z_MSC_RDPS_VerticalVelocity_IsbL-0250_RLatLon0.09_PT068H.grib2 2026-04-29 03:00 445K
20260429T00Z_MSC_RDPS_VerticalVelocity_IsbL-0500_RLatLon0.09_PT068H.grib2 2026-04-29 03:00 538K
20260429T00Z_MSC_RDPS_VerticalVelocity_IsbL-0700_RLatLon0.09_PT068H.grib2 2026-04-29 03:00 624K
20260429T00Z_MSC_RDPS_VerticalVelocity_IsbL-0850_RLatLon0.09_PT068H.grib2 2026-04-29 03:00 714K
20260429T00Z_MSC_RDPS_VerticalWindShear_EtaL-6500_RLatLon0.09_PT068H.grib2 2026-04-29 03:00 1.2M
20260429T00Z_MSC_RDPS_WindChill_Sfc_RLatLon0.09_PT068H.grib2 2026-04-29 03:00 1.1M
20260429T00Z_MSC_RDPS_WindDir_AGL-10m_RLatLon0.09_PT068H.grib2 2026-04-29 03:00 943K
20260429T00Z_MSC_RDPS_WindDir_AGL-120m_RLatLon0.09_PT068H.grib2 2026-04-29 03:00 595K
20260429T00Z_MSC_RDPS_WindDir_AGL-40m_RLatLon0.09_PT068H.grib2 2026-04-29 03:00 615K
20260429T00Z_MSC_RDPS_WindDir_AGL-80m_RLatLon0.09_PT068H.grib2 2026-04-29 03:00 603K
20260429T00Z_MSC_RDPS_WindDir_IsbL-0001_RLatLon0.09_PT068H.grib2 2026-04-29 03:00 292K
20260429T00Z_MSC_RDPS_WindDir_IsbL-0005_RLatLon0.09_PT068H.grib2 2026-04-29 03:00 360K
20260429T00Z_MSC_RDPS_WindDir_IsbL-0010_RLatLon0.09_PT068H.grib2 2026-04-29 03:00 372K
20260429T00Z_MSC_RDPS_WindDir_IsbL-0020_RLatLon0.09_PT068H.grib2 2026-04-29 03:00 413K
20260429T00Z_MSC_RDPS_WindDir_IsbL-0030_RLatLon0.09_PT068H.grib2 2026-04-29 03:00 409K
20260429T00Z_MSC_RDPS_WindDir_IsbL-0050_RLatLon0.09_PT068H.grib2 2026-04-29 03:00 405K
20260429T00Z_MSC_RDPS_WindDir_IsbL-0100_RLatLon0.09_PT068H.grib2 2026-04-29 03:00 412K
20260429T00Z_MSC_RDPS_WindDir_IsbL-0150_RLatLon0.09_PT068H.grib2 2026-04-29 03:00 410K
20260429T00Z_MSC_RDPS_WindDir_IsbL-0175_RLatLon0.09_PT068H.grib2 2026-04-29 03:00 436K
20260429T00Z_MSC_RDPS_WindDir_IsbL-0200_RLatLon0.09_PT068H.grib2 2026-04-29 03:00 450K
20260429T00Z_MSC_RDPS_WindDir_IsbL-0225_RLatLon0.09_PT068H.grib2 2026-04-29 03:00 449K
20260429T00Z_MSC_RDPS_WindDir_IsbL-0250_RLatLon0.09_PT068H.grib2 2026-04-29 03:00 448K
20260429T00Z_MSC_RDPS_WindDir_IsbL-0275_RLatLon0.09_PT068H.grib2 2026-04-29 03:00 471K
20260429T00Z_MSC_RDPS_WindDir_IsbL-0300_RLatLon0.09_PT068H.grib2 2026-04-29 03:00 472K
20260429T00Z_MSC_RDPS_WindDir_IsbL-0350_RLatLon0.09_PT068H.grib2 2026-04-29 03:00 494K
20260429T00Z_MSC_RDPS_WindDir_IsbL-0400_RLatLon0.09_PT068H.grib2 2026-04-29 03:00 513K
20260429T00Z_MSC_RDPS_WindDir_IsbL-0450_RLatLon0.09_PT068H.grib2 2026-04-29 03:00 520K
20260429T00Z_MSC_RDPS_WindDir_IsbL-0500_RLatLon0.09_PT068H.grib2 2026-04-29 03:00 537K
20260429T00Z_MSC_RDPS_WindDir_IsbL-0550_RLatLon0.09_PT068H.grib2 2026-04-29 03:00 553K
20260429T00Z_MSC_RDPS_WindDir_IsbL-0600_RLatLon0.09_PT068H.grib2 2026-04-29 03:00 581K
20260429T00Z_MSC_RDPS_WindDir_IsbL-0650_RLatLon0.09_PT068H.grib2 2026-04-29 03:00 623K
20260429T00Z_MSC_RDPS_WindDir_IsbL-0700_RLatLon0.09_PT068H.grib2 2026-04-29 03:00 663K
20260429T00Z_MSC_RDPS_WindDir_IsbL-0750_RLatLon0.09_PT068H.grib2 2026-04-29 03:00 707K
20260429T00Z_MSC_RDPS_WindDir_IsbL-0800_RLatLon0.09_PT068H.grib2 2026-04-29 03:00 770K
20260429T00Z_MSC_RDPS_WindDir_IsbL-0850_RLatLon0.09_PT068H.grib2 2026-04-29 03:00 837K
20260429T00Z_MSC_RDPS_WindDir_IsbL-0875_RLatLon0.09_PT068H.grib2 2026-04-29 03:00 863K
20260429T00Z_MSC_RDPS_WindDir_IsbL-0900_RLatLon0.09_PT068H.grib2 2026-04-29 03:00 886K
20260429T00Z_MSC_RDPS_WindDir_IsbL-0925_RLatLon0.09_PT068H.grib2 2026-04-29 03:00 896K
20260429T00Z_MSC_RDPS_WindDir_IsbL-0950_RLatLon0.09_PT068H.grib2 2026-04-29 03:00 897K
20260429T00Z_MSC_RDPS_WindDir_IsbL-0970_RLatLon0.09_PT068H.grib2 2026-04-29 03:00 905K
20260429T00Z_MSC_RDPS_WindDir_IsbL-0985_RLatLon0.09_PT068H.grib2 2026-04-29 03:00 913K
20260429T00Z_MSC_RDPS_WindDir_IsbL-1000_RLatLon0.09_PT068H.grib2 2026-04-29 03:00 923K
20260429T00Z_MSC_RDPS_WindDir_IsbL-1015_RLatLon0.09_PT068H.grib2 2026-04-29 03:00 936K
20260429T00Z_MSC_RDPS_WindGust-Max_AGL-10m_RLatLon0.09_PT068H.grib2 2026-04-29 03:00 1.0M
20260429T00Z_MSC_RDPS_WindGust-Min_AGL-10m_RLatLon0.09_PT068H.grib2 2026-04-29 03:00 962K
20260429T00Z_MSC_RDPS_WindGust_AGL-10m_RLatLon0.09_PT068H.grib2 2026-04-29 03:00 1.0M
20260429T00Z_MSC_RDPS_WindSpeed_AGL-10m_RLatLon0.09_PT068H.grib2 2026-04-29 03:00 828K
20260429T00Z_MSC_RDPS_WindSpeed_AGL-120m_RLatLon0.09_PT068H.grib2 2026-04-29 03:00 527K
20260429T00Z_MSC_RDPS_WindSpeed_AGL-40m_RLatLon0.09_PT068H.grib2 2026-04-29 03:00 658K
20260429T00Z_MSC_RDPS_WindSpeed_AGL-80m_RLatLon0.09_PT068H.grib2 2026-04-29 03:00 527K
20260429T00Z_MSC_RDPS_WindSpeed_IsbL-0001_RLatLon0.09_PT068H.grib2 2026-04-29 03:00 334K
20260429T00Z_MSC_RDPS_WindSpeed_IsbL-0005_RLatLon0.09_PT068H.grib2 2026-04-29 03:00 342K
20260429T00Z_MSC_RDPS_WindSpeed_IsbL-0010_RLatLon0.09_PT068H.grib2 2026-04-29 03:00 396K
20260429T00Z_MSC_RDPS_WindSpeed_IsbL-0020_RLatLon0.09_PT068H.grib2 2026-04-29 03:00 324K
20260429T00Z_MSC_RDPS_WindSpeed_IsbL-0030_RLatLon0.09_PT068H.grib2 2026-04-29 03:00 319K
20260429T00Z_MSC_RDPS_WindSpeed_IsbL-0050_RLatLon0.09_PT068H.grib2 2026-04-29 03:00 448K
20260429T00Z_MSC_RDPS_WindSpeed_IsbL-0100_RLatLon0.09_PT068H.grib2 2026-04-29 03:00 471K
20260429T00Z_MSC_RDPS_WindSpeed_IsbL-0150_RLatLon0.09_PT068H.grib2 2026-04-29 03:00 377K
20260429T00Z_MSC_RDPS_WindSpeed_IsbL-0175_RLatLon0.09_PT068H.grib2 2026-04-29 03:00 403K
20260429T00Z_MSC_RDPS_WindSpeed_IsbL-0200_RLatLon0.09_PT068H.grib2 2026-04-29 03:00 440K
20260429T00Z_MSC_RDPS_WindSpeed_IsbL-0225_RLatLon0.09_PT068H.grib2 2026-04-29 03:00 446K
20260429T00Z_MSC_RDPS_WindSpeed_IsbL-0250_RLatLon0.09_PT068H.grib2 2026-04-29 03:00 446K
20260429T00Z_MSC_RDPS_WindSpeed_IsbL-0275_RLatLon0.09_PT068H.grib2 2026-04-29 03:00 461K
20260429T00Z_MSC_RDPS_WindSpeed_IsbL-0300_RLatLon0.09_PT068H.grib2 2026-04-29 03:00 459K
20260429T00Z_MSC_RDPS_WindSpeed_IsbL-0350_RLatLon0.09_PT068H.grib2 2026-04-29 03:00 470K
20260429T00Z_MSC_RDPS_WindSpeed_IsbL-0400_RLatLon0.09_PT068H.grib2 2026-04-29 03:00 474K
20260429T00Z_MSC_RDPS_WindSpeed_IsbL-0450_RLatLon0.09_PT068H.grib2 2026-04-29 03:00 456K
20260429T00Z_MSC_RDPS_WindSpeed_IsbL-0500_RLatLon0.09_PT068H.grib2 2026-04-29 03:00 458K
20260429T00Z_MSC_RDPS_WindSpeed_IsbL-0550_RLatLon0.09_PT068H.grib2 2026-04-29 03:00 460K
20260429T00Z_MSC_RDPS_WindSpeed_IsbL-0600_RLatLon0.09_PT068H.grib2 2026-04-29 03:00 470K
20260429T00Z_MSC_RDPS_WindSpeed_IsbL-0650_RLatLon0.09_PT068H.grib2 2026-04-29 03:00 610K
20260429T00Z_MSC_RDPS_WindSpeed_IsbL-0700_RLatLon0.09_PT068H.grib2 2026-04-29 03:00 634K
20260429T00Z_MSC_RDPS_WindSpeed_IsbL-0750_RLatLon0.09_PT068H.grib2 2026-04-29 03:00 707K
20260429T00Z_MSC_RDPS_WindSpeed_IsbL-0800_RLatLon0.09_PT068H.grib2 2026-04-29 03:00 749K
20260429T00Z_MSC_RDPS_WindSpeed_IsbL-0850_RLatLon0.09_PT068H.grib2 2026-04-29 03:00 803K
20260429T00Z_MSC_RDPS_WindSpeed_IsbL-0875_RLatLon0.09_PT068H.grib2 2026-04-29 03:00 823K
20260429T00Z_MSC_RDPS_WindSpeed_IsbL-0900_RLatLon0.09_PT068H.grib2 2026-04-29 03:00 841K
20260429T00Z_MSC_RDPS_WindSpeed_IsbL-0925_RLatLon0.09_PT068H.grib2 2026-04-29 03:00 853K
20260429T00Z_MSC_RDPS_WindSpeed_IsbL-0950_RLatLon0.09_PT068H.grib2 2026-04-29 03:00 849K
20260429T00Z_MSC_RDPS_WindSpeed_IsbL-0970_RLatLon0.09_PT068H.grib2 2026-04-29 03:00 850K
20260429T00Z_MSC_RDPS_WindSpeed_IsbL-0985_RLatLon0.09_PT068H.grib2 2026-04-29 03:00 846K
20260429T00Z_MSC_RDPS_WindSpeed_IsbL-1000_RLatLon0.09_PT068H.grib2 2026-04-29 03:00 840K
20260429T00Z_MSC_RDPS_WindSpeed_IsbL-1015_RLatLon0.09_PT068H.grib2 2026-04-29 03:00 829K
20260429T00Z_MSC_RDPS_WindU_AGL-10m_RLatLon0.09_PT068H.grib2 2026-04-29 03:00 430K
20260429T00Z_MSC_RDPS_WindU_AGL-120m_RLatLon0.09_PT068H.grib2 2026-04-29 03:00 528K
20260429T00Z_MSC_RDPS_WindU_AGL-40m_RLatLon0.09_PT068H.grib2 2026-04-29 03:00 531K
20260429T00Z_MSC_RDPS_WindU_AGL-80m_RLatLon0.09_PT068H.grib2 2026-04-29 03:00 529K
20260429T00Z_MSC_RDPS_WindU_IsbL-0001_RLatLon0.09_PT068H.grib2 2026-04-29 03:00 245K
20260429T00Z_MSC_RDPS_WindU_IsbL-0005_RLatLon0.09_PT068H.grib2 2026-04-29 03:00 284K
20260429T00Z_MSC_RDPS_WindU_IsbL-0010_RLatLon0.09_PT068H.grib2 2026-04-29 03:00 297K
20260429T00Z_MSC_RDPS_WindU_IsbL-0020_RLatLon0.09_PT068H.grib2 2026-04-29 03:00 313K
20260429T00Z_MSC_RDPS_WindU_IsbL-0030_RLatLon0.09_PT068H.grib2 2026-04-29 03:00 312K
20260429T00Z_MSC_RDPS_WindU_IsbL-0050_RLatLon0.09_PT068H.grib2 2026-04-29 03:00 341K
20260429T00Z_MSC_RDPS_WindU_IsbL-0100_RLatLon0.09_PT068H.grib2 2026-04-29 03:00 427K
20260429T00Z_MSC_RDPS_WindU_IsbL-0150_RLatLon0.09_PT068H.grib2 2026-04-29 03:00 392K
20260429T00Z_MSC_RDPS_WindU_IsbL-0175_RLatLon0.09_PT068H.grib2 2026-04-29 03:00 417K
20260429T00Z_MSC_RDPS_WindU_IsbL-0200_RLatLon0.09_PT068H.grib2 2026-04-29 03:00 335K
20260429T00Z_MSC_RDPS_WindU_IsbL-0225_RLatLon0.09_PT068H.grib2 2026-04-29 03:00 339K
20260429T00Z_MSC_RDPS_WindU_IsbL-0250_RLatLon0.09_PT068H.grib2 2026-04-29 03:00 338K
20260429T00Z_MSC_RDPS_WindU_IsbL-0275_RLatLon0.09_PT068H.grib2 2026-04-29 03:00 376K
20260429T00Z_MSC_RDPS_WindU_IsbL-0300_RLatLon0.09_PT068H.grib2 2026-04-29 03:00 348K
20260429T00Z_MSC_RDPS_WindU_IsbL-0350_RLatLon0.09_PT068H.grib2 2026-04-29 03:00 356K
20260429T00Z_MSC_RDPS_WindU_IsbL-0400_RLatLon0.09_PT068H.grib2 2026-04-29 03:00 359K
20260429T00Z_MSC_RDPS_WindU_IsbL-0450_RLatLon0.09_PT068H.grib2 2026-04-29 03:00 463K
20260429T00Z_MSC_RDPS_WindU_IsbL-0500_RLatLon0.09_PT068H.grib2 2026-04-29 03:00 465K
20260429T00Z_MSC_RDPS_WindU_IsbL-0550_RLatLon0.09_PT068H.grib2 2026-04-29 03:00 468K
20260429T00Z_MSC_RDPS_WindU_IsbL-0600_RLatLon0.09_PT068H.grib2 2026-04-29 03:00 479K
20260429T00Z_MSC_RDPS_WindU_IsbL-0650_RLatLon0.09_PT068H.grib2 2026-04-29 03:00 498K
20260429T00Z_MSC_RDPS_WindU_IsbL-0700_RLatLon0.09_PT068H.grib2 2026-04-29 03:00 519K
20260429T00Z_MSC_RDPS_WindU_IsbL-0750_RLatLon0.09_PT068H.grib2 2026-04-29 03:00 529K
20260429T00Z_MSC_RDPS_WindU_IsbL-0800_RLatLon0.09_PT068H.grib2 2026-04-29 03:00 568K
20260429T00Z_MSC_RDPS_WindU_IsbL-0850_RLatLon0.09_PT068H.grib2 2026-04-29 03:00 614K
20260429T00Z_MSC_RDPS_WindU_IsbL-0875_RLatLon0.09_PT068H.grib2 2026-04-29 03:00 630K
20260429T00Z_MSC_RDPS_WindU_IsbL-0900_RLatLon0.09_PT068H.grib2 2026-04-29 03:00 644K
20260429T00Z_MSC_RDPS_WindU_IsbL-0925_RLatLon0.09_PT068H.grib2 2026-04-29 03:00 652K
20260429T00Z_MSC_RDPS_WindU_IsbL-0950_RLatLon0.09_PT068H.grib2 2026-04-29 03:00 650K
20260429T00Z_MSC_RDPS_WindU_IsbL-0970_RLatLon0.09_PT068H.grib2 2026-04-29 03:00 650K
20260429T00Z_MSC_RDPS_WindU_IsbL-0985_RLatLon0.09_PT068H.grib2 2026-04-29 03:00 786K
20260429T00Z_MSC_RDPS_WindU_IsbL-1000_RLatLon0.09_PT068H.grib2 2026-04-29 03:00 782K
20260429T00Z_MSC_RDPS_WindU_IsbL-1015_RLatLon0.09_PT068H.grib2 2026-04-29 03:00 820K
20260429T00Z_MSC_RDPS_WindV_AGL-10m_RLatLon0.09_PT068H.grib2 2026-04-29 03:00 426K
20260429T00Z_MSC_RDPS_WindV_AGL-120m_RLatLon0.09_PT068H.grib2 2026-04-29 03:00 524K
20260429T00Z_MSC_RDPS_WindV_AGL-40m_RLatLon0.09_PT068H.grib2 2026-04-29 03:00 525K
20260429T00Z_MSC_RDPS_WindV_AGL-80m_RLatLon0.09_PT068H.grib2 2026-04-29 03:00 524K
20260429T00Z_MSC_RDPS_WindV_IsbL-0001_RLatLon0.09_PT068H.grib2 2026-04-29 03:00 245K
20260429T00Z_MSC_RDPS_WindV_IsbL-0005_RLatLon0.09_PT068H.grib2 2026-04-29 03:00 284K
20260429T00Z_MSC_RDPS_WindV_IsbL-0010_RLatLon0.09_PT068H.grib2 2026-04-29 03:00 299K
20260429T00Z_MSC_RDPS_WindV_IsbL-0020_RLatLon0.09_PT068H.grib2 2026-04-29 03:00 317K
20260429T00Z_MSC_RDPS_WindV_IsbL-0030_RLatLon0.09_PT068H.grib2 2026-04-29 03:00 315K
20260429T00Z_MSC_RDPS_WindV_IsbL-0050_RLatLon0.09_PT068H.grib2 2026-04-29 03:00 339K
20260429T00Z_MSC_RDPS_WindV_IsbL-0100_RLatLon0.09_PT068H.grib2 2026-04-29 03:00 424K
20260429T00Z_MSC_RDPS_WindV_IsbL-0150_RLatLon0.09_PT068H.grib2 2026-04-29 03:00 392K
20260429T00Z_MSC_RDPS_WindV_IsbL-0175_RLatLon0.09_PT068H.grib2 2026-04-29 03:00 323K
20260429T00Z_MSC_RDPS_WindV_IsbL-0200_RLatLon0.09_PT068H.grib2 2026-04-29 03:00 334K
20260429T00Z_MSC_RDPS_WindV_IsbL-0225_RLatLon0.09_PT068H.grib2 2026-04-29 03:00 337K
20260429T00Z_MSC_RDPS_WindV_IsbL-0250_RLatLon0.09_PT068H.grib2 2026-04-29 03:00 336K
20260429T00Z_MSC_RDPS_WindV_IsbL-0275_RLatLon0.09_PT068H.grib2 2026-04-29 03:00 348K
20260429T00Z_MSC_RDPS_WindV_IsbL-0300_RLatLon0.09_PT068H.grib2 2026-04-29 03:00 345K
20260429T00Z_MSC_RDPS_WindV_IsbL-0350_RLatLon0.09_PT068H.grib2 2026-04-29 03:00 455K
20260429T00Z_MSC_RDPS_WindV_IsbL-0400_RLatLon0.09_PT068H.grib2 2026-04-29 03:00 458K
20260429T00Z_MSC_RDPS_WindV_IsbL-0450_RLatLon0.09_PT068H.grib2 2026-04-29 03:00 458K
20260429T00Z_MSC_RDPS_WindV_IsbL-0500_RLatLon0.09_PT068H.grib2 2026-04-29 03:00 460K
20260429T00Z_MSC_RDPS_WindV_IsbL-0550_RLatLon0.09_PT068H.grib2 2026-04-29 03:00 464K
20260429T00Z_MSC_RDPS_WindV_IsbL-0600_RLatLon0.09_PT068H.grib2 2026-04-29 03:00 457K
20260429T00Z_MSC_RDPS_WindV_IsbL-0650_RLatLon0.09_PT068H.grib2 2026-04-29 03:00 478K
20260429T00Z_MSC_RDPS_WindV_IsbL-0700_RLatLon0.09_PT068H.grib2 2026-04-29 03:00 499K
20260429T00Z_MSC_RDPS_WindV_IsbL-0750_RLatLon0.09_PT068H.grib2 2026-04-29 03:00 524K
20260429T00Z_MSC_RDPS_WindV_IsbL-0800_RLatLon0.09_PT068H.grib2 2026-04-29 03:00 562K
20260429T00Z_MSC_RDPS_WindV_IsbL-0850_RLatLon0.09_PT068H.grib2 2026-04-29 03:00 609K
20260429T00Z_MSC_RDPS_WindV_IsbL-0875_RLatLon0.09_PT068H.grib2 2026-04-29 03:00 628K
20260429T00Z_MSC_RDPS_WindV_IsbL-0900_RLatLon0.09_PT068H.grib2 2026-04-29 03:00 643K
20260429T00Z_MSC_RDPS_WindV_IsbL-0925_RLatLon0.09_PT068H.grib2 2026-04-29 03:00 789K
20260429T00Z_MSC_RDPS_WindV_IsbL-0950_RLatLon0.09_PT068H.grib2 2026-04-29 03:00 786K
20260429T00Z_MSC_RDPS_WindV_IsbL-0970_RLatLon0.09_PT068H.grib2 2026-04-29 03:00 785K
20260429T00Z_MSC_RDPS_WindV_IsbL-0985_RLatLon0.09_PT068H.grib2 2026-04-29 03:00 782K
20260429T00Z_MSC_RDPS_WindV_IsbL-1000_RLatLon0.09_PT068H.grib2 2026-04-29 03:00 822K
20260429T00Z_MSC_RDPS_WindV_IsbL-1015_RLatLon0.09_PT068H.grib2 2026-04-29 03:00 814K